Flag for Germany Weather past 2 weeks in Landshut, Bavaria, Germany

Now
56 °F

Overcast.


Feels Like: 56 °F
Forecast: 47 / 58 °F
Wind: 3 mph from Southwest

Location: Muenchen Flughafen

Current Time: May 25, 2015 at 9:46:30 PM

Latest Report: May 25, 2015 at 9:00 PM


Visibility: 19 mi

Pressure: 29.91 "Hg

Humidity: 80%

Dew point: 49 °F

Location of LandshutLocation

Historic Weather in Landshut — Graph

°F

Landshut temperature yesterday

Maximum temperature yesterday: 59 °F (at 4:00 PM)
Minimum temperature yesterday: 47 °F (at 6:00 AM)
Average temperature yesterday: 53 °F

Past Weeks' High & Low Weather Summary

 TemperatureHumidityPressure
High80 °F (May 12, 4:00 PM)100% (May 16, 2:00 AM)30.39 "Hg (May 16, 2:00 AM)
Low42 °F (May 11, 5:00 AM)31% (May 12, 5:00 PM)29.69 "Hg (May 18, 8:00 PM)
Average56 °F78%30.06 "Hg
* Reported May 10 8:00 PM — May 25 8:00 PM, Landshut, Weather by CustomWeather, © 2015

Note: Actual official high and low records may vary slightly from our data, if they occured in-between our weather recording intervals... More about our weather records

Advertising

Landshut weather history for previous 24 hours

 ConditionsComfort  
Time TempWeatherWind HumidityBarometerVisibility
8:00 PM
Mon, May 25
56 °FOvercast.5 mph79%29.89 "Hg19 mi
7:00 PM64 °FOvercast.1 mph69%29.85 "Hg19 mi
6:00 PM64 °FPartly sunny.2 mph60%29.86 "Hg31 mi
5:00 PM65 °FScattered clouds.3 mph62%29.86 "Hg25 mi
4:00 PM64 °FPartly sunny.3 mph59%29.89 "Hg19 mi
3:00 PM63 °FOvercast.3 mph68%29.91 "Hg14 mi
2:00 PM60 °FOvercast.2 mph71%29.95 "Hg12 mi
1:00 PM58 °FOvercast.2 mph80%29.97 "Hg12 mi
12:00 PM56 °FOvercast.2 mph82%29.98 "Hg12 mi
11:00 AM55 °FOvercast.1 mph85%30.00 "Hg11 mi
10:00 AM54 °FOvercast.1 mph89%30.01 "Hg7 mi
9:00 AM53 °FLight rain. Overcast.1 mph91%30.02 "Hg6 mi
8:00 AM52 °FLight rain. Overcast.2 mph91%30.03 "Hg6 mi
7:00 AM51 °FOvercast.2 mph94%30.03 "Hg4 mi
6:00 AM50 °FFog.1 mph98%30.03 "Hg4 mi
5:00 AM51 °FOvercast.1 mph98%30.04 "Hg5 mi
4:00 AM51 °FOvercast.1 mph98%30.05 "Hg7 mi
3:00 AM51 °FOvercast.No wind98%30.05 "Hg7 mi
2:00 AM51 °FOvercast.No wind98%30.06 "Hg9 mi
1:00 AM52 °FOvercast.No wind97%30.06 "Hg12 mi
12:00 AM52 °FOvercast.1 mph95%30.08 "Hg16 mi
11:00 PM
Sun, May 24
55 °FOvercast.1 mph79%30.07 "Hg16 mi
10:00 PM53 °FOvercast.1 mph94%30.08 "Hg16 mi
9:00 PM54 °FOvercast.N/A88%30.07 "Hg19 mi
Weather by CustomWeather, © 2015

See weather overviewHow to use our weather pages